When you browse on this site, cookies collect data to enhance your experience and personalize the content and advertising you see.
Visit our Privacy Policy to learn more. By continuing to use the site, you agree to this use of cookies and data.
  • In Spain
  • List of Countries
  • For 7 days
  • Water Temperature
  • Satellite Maps
  • Weather Map
  • Weather Widgets
  • user-avatar
    Login

    Hourly Weather Cape Coast

    Today, 21 November, Wednesday

    Time Temperature Precipitation Wind Pressure Humidity
    00:00 +27°C° 0 mm 2 mps 758 mmHg 93%
    01:00 +27°C° 0 mm 2 mps 758 mmHg 94%
    02:00 +26°C° 0 mm 2 mps 758 mmHg 95%
    03:00 +26°C° 0 mm 2 mps 758 mmHg 96%
    04:00 +26°C° 0 mm 2 mps 758 mmHg 96%
    05:00 +26°C° 0 mm 2 mps 758 mmHg 96%
    06:00 +26°C° 0 mm 2 mps 758 mmHg 97%
    07:00 +28°C° 0 mm 2 mps 759 mmHg 88%
    08:00 +30°C° 0 mm 2 mps 759 mmHg 80%
    09:00 +31°C° 0 mm 2 mps 759 mmHg 71%
    10:00 +34°C° 0 mm 3 mps 759 mmHg 65%
    11:00 +35°C° 0 mm 3 mps 758 mmHg 59%
    12:00 +36°C° 0 mm 3 mps 758 mmHg 53%
    13:00 +36°C° 0.1 mm 3 mps 758 mmHg 57%
    14:00 +35°C° 0.1 mm 4 mps 757 mmHg 60%
    15:00 +34°C° 0.1 mm 4 mps 757 mmHg 64%
    16:00 +33°C° 0.1 mm 4 mps 757 mmHg 70%
    17:00 +30°C° 0.1 mm 4 mps 757 mmHg 77%
    18:00 +29°C° 0.1 mm 4 mps 757 mmHg 84%
    19:00 +28°C° 0 mm 4 mps 758 mmHg 86%
    20:00 +28°C° 0 mm 3 mps 758 mmHg 89%
    21:00 +28°C° 0 mm 3 mps 759 mmHg 91%
    22:00 +27°C° 0 mm 3 mps 759 mmHg 92%
    23:00 +27°C° 0 mm 3 mps 759 mmHg 93%

    Tomorrow, 22 November, Thursday

    Time Temperature Precipitation Wind Pressure Humidity
    00:00 +27°C° 0 mm 3 mps 759 mmHg 95%
    01:00 +27°C° 0 mm 3 mps 758 mmHg 95%
    02:00 +26°C° 0 mm 3 mps 757 mmHg 96%
    03:00 +26°C° 0 mm 3 mps 757 mmHg 97%
    04:00 +26°C° 0 mm 3 mps 757 mmHg 97%
    05:00 +26°C° 0 mm 3 mps 757 mmHg 97%
    06:00 +26°C° 0 mm 3 mps 757 mmHg 97%
    07:00 +28°C° 0 mm 3 mps 758 mmHg 88%
    08:00 +30°C° 0 mm 4 mps 758 mmHg 80%
    09:00 +33°C° 0 mm 4 mps 759 mmHg 71%
    10:00 +33°C° 0.1 mm 4 mps 758 mmHg 69%
    11:00 +33°C° 0.1 mm 4 mps 758 mmHg 67%
    12:00 +34°C° 0.1 mm 4 mps 758 mmHg 65%
    13:00 +34°C° 0.1 mm 4 mps 757 mmHg 64%
    14:00 +34°C° 0.1 mm 4 mps 757 mmHg 63%
    15:00 +35°C° 0.1 mm 4 mps 756 mmHg 61%
    16:00 +33°C° 0 mm 4 mps 756 mmHg 68%
    17:00 +32°C° 0 mm 4 mps 756 mmHg 74%
    18:00 +29°C° 0 mm 3 mps 757 mmHg 81%
    19:00 +29°C° 0 mm 3 mps 757 mmHg 84%
    20:00 +28°C° 0 mm 3 mps 758 mmHg 87%
    21:00 +28°C° 0 mm 3 mps 758 mmHg 91%
    22:00 +27°C° 0 mm 3 mps 758 mmHg 92%
    23:00 +27°C° 0 mm 3 mps 758 mmHg 93%

    Day after tomorrow, 23 November, Friday

    Time Temperature Precipitation Wind Pressure Humidity
    00:00 +27°C° 0 mm 3 mps 758 mmHg 94%
    01:00 +27°C° 0 mm 3 mps 757 mmHg 95%
    02:00 +27°C° 0 mm 3 mps 757 mmHg 96%
    03:00 +26°C° 0 mm 3 mps 756 mmHg 96%
    04:00 +26°C° 0 mm 3 mps 756 mmHg 97%
    05:00 +26°C° 0 mm 3 mps 757 mmHg 97%
    06:00 +26°C° 0 mm 3 mps 757 mmHg 97%
    07:00 +28°C° 0 mm 3 mps 758 mmHg 88%
    08:00 +30°C° 0 mm 4 mps 758 mmHg 80%
    09:00 +33°C° 0 mm 4 mps 759 mmHg 71%
    10:00 +33°C° 0.2 mm 3 mps 758 mmHg 70%
    11:00 +33°C° 0.2 mm 3 mps 758 mmHg 69%
    12:00 +33°C° 0.2 mm 3 mps 757 mmHg 68%
    13:00 +33°C° 0.7 mm 3 mps 757 mmHg 70%
    14:00 +33°C° 0.7 mm 3 mps 756 mmHg 72%
    15:00 +31°C° 0.7 mm 3 mps 756 mmHg 75%
    16:00 +30°C° 0.2 mm 3 mps 756 mmHg 79%
    17:00 +29°C° 0.2 mm 3 mps 756 mmHg 84%
    18:00 +28°C° 0.2 mm 3 mps 756 mmHg 88%
    19:00 +28°C° 0 mm 3 mps 757 mmHg 90%
    20:00 +28°C° 0 mm 2 mps 757 mmHg 92%
    21:00 +27°C° 0 mm 2 mps 758 mmHg 93%
    22:00 +27°C° 0 mm 2 mps 758 mmHg 94%
    23:00 +27°C° 0 mm 2 mps 758 mmHg 95%

    24 November, Saturday

    Time Temperature Precipitation Wind Pressure Humidity
    00:00 +26°C° 0 mm 2 mps 758 mmHg 95%
    01:00 +26°C° 0 mm 2 mps 757 mmHg 96%
    02:00 +26°C° 0 mm 2 mps 757 mmHg 96%
    03:00 +26°C° 0 mm 1 mps 756 mmHg 97%
    04:00 +26°C° 0 mm 2 mps 757 mmHg 97%
    05:00 +26°C° 0 mm 2 mps 757 mmHg 97%
    06:00 +25°C° 0 mm 2 mps 757 mmHg 97%
    07:00 +27°C° 0 mm 2 mps 758 mmHg 89%
    08:00 +29°C° 0 mm 2 mps 758 mmHg 81%
    09:00 +31°C° 0 mm 3 mps 759 mmHg 72%
    10:00 +34°C° 0 mm 3 mps 758 mmHg 65%
    11:00 +35°C° 0 mm 3 mps 758 mmHg 57%
    12:00 +37°C° 0 mm 3 mps 757 mmHg 49%
    13:00 +37°C° 0 mm 3 mps 757 mmHg 51%
    14:00 +36°C° 0 mm 3 mps 756 mmHg 52%
    15:00 +36°C° 0 mm 4 mps 756 mmHg 54%
    16:00 +34°C° 0 mm 3 mps 756 mmHg 62%
    17:00 +31°C° 0 mm 3 mps 756 mmHg 70%
    18:00 +29°C° 0 mm 3 mps 757 mmHg 78%
    19:00 +29°C° 0 mm 3 mps 757 mmHg 81%
    20:00 +28°C° 0 mm 3 mps 758 mmHg 84%
    21:00 +28°C° 0 mm 3 mps 758 mmHg 87%
    22:00 +27°C° 0 mm 3 mps 758 mmHg 88%
    23:00 +27°C° 0 mm 3 mps 758 mmHg 89%

    25 November, Sunday

    Time Temperature Precipitation Wind Pressure Humidity
    00:00 +27°C° 0 mm 3 mps 757 mmHg 90%
    01:00 +27°C° 0 mm 3 mps 757 mmHg 91%
    02:00 +26°C° 0 mm 3 mps 757 mmHg 91%
    03:00 +26°C° 0 mm 3 mps 756 mmHg 92%
    04:00 +26°C° 0 mm 3 mps 757 mmHg 93%
    05:00 +26°C° 0 mm 2 mps 757 mmHg 93%
    06:00 +26°C° 0 mm 2 mps 757 mmHg 94%
    07:00 +28°C° 0 mm 3 mps 758 mmHg 86%
    08:00 +30°C° 0 mm 3 mps 758 mmHg 78%
    09:00 +31°C° 0 mm 3 mps 758 mmHg 71%
    10:00 +34°C° 0 mm 4 mps 758 mmHg 65%
    11:00 +35°C° 0 mm 4 mps 757 mmHg 59%
    12:00 +37°C° 0 mm 4 mps 757 mmHg 53%
    13:00 +36°C° 0.5 mm 4 mps 756 mmHg 60%
    14:00 +34°C° 0.5 mm 4 mps 756 mmHg 67%
    15:00 +33°C° 0.5 mm 4 mps 755 mmHg 74%
    16:00 +32°C° 0.2 mm 4 mps 756 mmHg 79%
    17:00 +30°C° 0.2 mm 4 mps 756 mmHg 84%
    18:00 +28°C° 0.2 mm 4 mps 756 mmHg 88%
    19:00 +28°C° 0 mm 4 mps 757 mmHg 90%
    20:00 +28°C° 0 mm 4 mps 757 mmHg 91%
    21:00 +27°C° 0 mm 4 mps 757 mmHg 92%
    22:00 +27°C° 0 mm 4 mps 757 mmHg 93%
    23:00 +27°C° 0 mm 4 mps 757 mmHg 94%

    26 November, Monday

    Time Temperature Precipitation Wind Pressure Humidity
    00:00 +27°C° 0 mm 4 mps 757 mmHg 95%
    01:00 +27°C° 0 mm 4 mps 756 mmHg 95%
    02:00 +27°C° 0 mm 4 mps 756 mmHg 96%
    03:00 +26°C° 0 mm 4 mps 755 mmHg 96%
    04:00 +26°C° 0.1 mm 4 mps 756 mmHg 97%
    05:00 +26°C° 0.1 mm 4 mps 756 mmHg 97%
    06:00 +26°C° 0.1 mm 3 mps 756 mmHg 97%
    07:00 +28°C° 0 mm 3 mps 757 mmHg 89%
    08:00 +30°C° 0 mm 3 mps 757 mmHg 82%
    09:00 +31°C° 0 mm 3 mps 757 mmHg 74%
    10:00 +33°C° 0.1 mm 3 mps 757 mmHg 71%
    11:00 +34°C° 0.1 mm 4 mps 756 mmHg 67%
    12:00 +35°C° 0.1 mm 4 mps 756 mmHg 64%
    13:00 +34°C° 0.2 mm 4 mps 755 mmHg 65%
    14:00 +34°C° 0.2 mm 4 mps 755 mmHg 66%
    15:00 +34°C° 0.2 mm 4 mps 754 mmHg 67%
    16:00 +33°C° 0.2 mm 4 mps 755 mmHg 74%
    17:00 +30°C° 0.2 mm 4 mps 755 mmHg 81%
    18:00 +28°C° 0.2 mm 4 mps 755 mmHg 88%
    19:00 +28°C° 0.1 mm 4 mps 756 mmHg 90%
    20:00 +28°C° 0.1 mm 3 mps 757 mmHg 92%
    21:00 +27°C° 0.1 mm 3 mps 757 mmHg 94%
    22:00 +27°C° 0.1 mm 3 mps 757 mmHg 95%
    23:00 +27°C° 0.1 mm 3 mps 757 mmHg 96%
    Show more